EW7346 Weather Reports


time (UTC)temp
C
wind
direction
speed
KPH
gust
KPH
rain 1hr
cm
rain 24hr
cm
rain mn
cm
humidity
%
barometer
mb
20260505165905 7 239 4.8 12.9 0.00 0.00 0.00 62 1012.1
20260505164858 6 148 6.4 16.1 0.00 0.00 0.00 63 1012.4
20260505163859 6 290 6.4 17.7 0.00 0.00 0.00 64 1012.7
20260505162856 6 190 6.4 20.9 0.00 0.00 0.00 66 1012.3
20260505161856 6 238 6.4 16.1 0.00 0.00 0.00 70 1012.7
20260505160856 6 227 8.0 16.1 0.00 0.00 0.00 70 1012.8
20260505152856 6 249 4.8 11.3 0.00 0.00 0.00 74 1013.0
20260505150858 5 296 0.0 3.2 0.00 0.00 0.00 79 1013.0
20260505150853 6 238 3.2 9.7 0.00 0.00 0.00 77 1013.2
20260505124847 1 205 0.0 0.0 0.00 0.00 0.00 88 1013.3
20260505123847 1 205 0.0 3.2 0.00 0.00 0.00 87 1013.2
20260505122849 2 144 0.0 4.8 0.00 0.00 0.00 86 1012.9
20260505121848 2 144 0.0 3.2 0.00 0.00 0.00 85 1013.2
20260505120856 2 143 0.0 0.0 0.00 0.00 0.00 78 1013.0
20260505120849 2 144 0.0 1.6 0.00 0.00 0.00 83 1012.9
20260505115849 2 143 0.0 0.0 0.00 0.00 0.00 81 1012.9
20260505113851 3 146 0.0 0.0 0.00 0.00 0.00 74 1012.8
20260505113845 2 143 0.0 0.0 0.00 0.00 0.00 77 1012.9
20260505111843 3 146 0.0 0.0 0.00 0.00 0.00 74 1012.8
20260505110849 4 146 0.0 0.0 0.00 0.00 0.00 72 1012.9
20260505110845 3 146 0.0 0.0 0.00 0.00 0.00 73 1013.0
20260505101833 4 144 0.0 4.8 0.00 0.00 0.00 70 1013.3
20260505100833 4 189 1.6 6.4 0.00 0.00 0.00 71 1013.3
20260505095834 4 126 1.6 6.4 0.00 0.00 0.00 71 1013.4
20260505094836 4 190 1.6 6.4 0.00 0.00 0.00 70 1013.6
20260505094831 4 180 1.6 6.4 0.00 0.00 0.00 71 1013.6
20260505092830 4 252 0.0 6.4 0.00 0.00 0.00 69 1013.6
20260505091830 4 117 0.0 0.0 0.00 0.00 0.00 67 1013.8
20260505090828 4 98 0.0 0.0 0.00 0.00 0.00 67 1013.7
20260505085826 5 98 0.0 3.2 0.00 0.00 0.00 66 1013.7
20260505084824 5 96 0.0 0.0 0.00 0.00 0.00 65 1013.8
20260505083824 5 96 0.0 1.6 0.00 0.00 0.00 65 1014.0
20260505082823 5 90 0.0 4.8 0.00 0.00 0.00 64 1014.0
20260505081826 5 59 1.6 6.4 0.00 0.00 0.00 65 1014.1
20260505081822 5 90 0.0 4.8 0.00 0.00 0.00 65 1014.0
20260505080939 5 138 1.6 8.0 0.00 0.00 0.00 66 1014.1
20260505074821 5 181 1.6 6.4 0.00 0.00 0.00 67 1014.2
20260505073821 5 76 1.6 8.0 0.00 0.00 0.00 70 1014.2
20260505072828 6 74 3.2 6.4 0.00 0.00 0.00 69 1014.5
20260505072822 5 75 1.6 9.7 0.00 0.00 0.00 70 1014.4
20260505070816 6 81 3.2 6.4 0.00 0.00 0.00 68 1014.6
20260505065814 6 56 1.6 4.8 0.00 0.00 0.00 65 1014.4
20260505064813 6 69 3.2 6.4 0.00 0.00 0.00 65 1014.5
20260505063813 6 74 3.2 4.8 0.00 0.00 0.00 65 1014.4
20260505062814 6 55 1.6 6.4 0.00 0.00 0.00 64 1014.6
20260505061813 6 53 0.0 3.2 0.00 0.00 0.00 63 1014.4
20260505060813 6 53 0.0 0.0 0.00 0.00 0.00 63 1014.4
20260505055812 6 53 0.0 0.0 0.00 0.00 0.00 63 1014.4
20260505054813 6 53 0.0 0.0 0.00 0.00 0.00 62 1014.6
20260505053814 7 53 0.0 0.0 0.00 0.00 0.00 64 1014.6
20260505052810 7 53 0.0 3.2 0.00 0.00 0.00 64 1014.5
20260505051810 7 53 0.0 3.2 0.00 0.00 0.00 65 1014.6
20260505050811 7 51 1.6 4.8 0.00 0.00 0.00 64 1014.6
20260505040804 6 36 1.6 8.0 0.00 0.00 0.00 70 1014.6
20260505035802 7 78 1.6 8.0 0.00 0.00 0.00 68 1014.5
20260505034808 7 59 0.0 4.8 0.00 0.00 0.00 65 1014.2
20260505034803 7 34 1.6 8.0 0.00 0.00 0.00 67 1014.4
20260505032805 8 232 1.6 6.4 0.00 0.00 0.00 64 1014.4
20260505032800 8 232 0.0 0.0 0.00 0.00 0.00 60 1014.6
20260505030753 8 241 0.0 8.0 0.00 0.00 0.00 53 1014.1
20260505025753 9 17 0.0 3.2 0.00 0.00 0.00 50 1013.8
20260505025748 9 17 0.0 0.0 0.00 0.00 0.00 50 1013.7
20260505023748 9 17 0.0 3.2 0.00 0.00 0.00 50 1013.7
20260505022749 9 335 0.0 0.0 0.00 0.00 0.00 49 1013.6
20260505021744 10 335 0.0 0.0 0.00 0.00 0.00 48 1013.2
20260505020745 10 335 0.0 0.0 0.00 0.00 0.00 47 1013.0
20260505015745 10 335 0.0 1.6 0.00 0.00 0.00 47 1013.2
20260505015739 10 335 0.0 3.2 0.00 0.00 0.00 46 1012.8
20260505013736 11 336 1.6 6.4 0.00 0.00 0.00 45 1012.9
20260505012738 11 348 1.6 8.0 0.00 0.00 0.00 44 1012.8
20260505011737 11 348 1.6 6.4 0.00 0.00 0.00 43 1012.7
20260505010735 11 0 1.6 6.4 0.00 0.00 0.00 42 1012.5
20260505005735 12 346 1.6 8.0 0.00 0.00 0.00 41 1012.5
20260505004731 12 327 1.6 4.8 0.00 0.00 0.00 39 1012.5
20260505003723 12 11 0.0 1.6 0.00 0.00 0.00 36 1012.5
20260505002720 12 47 0.0 0.0 0.00 0.00 0.00 34 1012.5
20260505001720 13 47 0.0 1.6 0.00 0.00 0.00 34 1012.4
20260505000721 12 47 0.0 0.0 0.00 0.00 0.00 35 1012.7
20260504235719 12 47 0.0 4.8 0.00 0.00 0.00 36 1012.5
20260504234721 12 185 3.2 8.0 0.00 0.00 0.00 34 1012.5
20260504234716 12 189 0.0 4.8 0.00 0.00 0.00 34 1012.5
20260504232715 12 74 1.6 8.0 0.00 0.00 0.00 34 1012.7
20260504231719 12 69 1.6 4.8 0.00 0.00 0.00 34 1012.7
20260504231715 12 5 1.6 8.0 0.00 0.00 0.00 35 1012.7
20260504225712 12 0 0.0 4.8 0.00 0.00 0.00 34 1012.8
20260504224712 12 98 1.6 6.4 0.00 0.00 0.00 34 1012.7
20260504223706 13 175 3.2 9.7 0.00 0.00 0.00 34 1012.8
20260504222708 13 221 1.6 6.4 0.00 0.00 0.00 34 1013.0
20260504221707 13 171 1.6 6.4 0.00 0.00 0.00 34 1013.0
20260504220707 13 181 3.2 11.3 0.00 0.00 0.00 33 1013.0
20260504215706 13 201 1.6 11.3 0.00 0.00 0.00 33 1013.4
20260504214707 13 326 1.6 4.8 0.00 0.00 0.00 35 1013.7
20260504213703 13 55 3.2 8.0 0.00 0.00 0.00 34 1013.7
20260504212703 13 347 1.6 6.4 0.00 0.00 0.00 34 1013.8
20260504211705 13 239 1.6 9.7 0.00 0.00 0.00 33 1014.1
20260504211700 13 355 1.6 8.0 0.00 0.00 0.00 34 1013.8
20260504205703 12 235 1.6 11.3 0.00 0.00 0.00 36 1014.4
20260504205659 13 294 3.2 14.5 0.00 0.00 0.00 35 1014.4
20260504203704 12 293 4.8 12.9 0.00 0.00 0.00 36 1014.9
20260504203700 12 244 3.2 11.3 0.00 0.00 0.00 36 1014.7
20260504201657 13 194 4.8 12.9 0.00 0.00 0.00 36 1014.9
20260504200658 13 210 6.4 19.3 0.00 0.00 0.00 35 1015.1
20260504200652 14 279 4.8 12.9 0.00 0.00 0.00 32 1015.0
20260504194651 14 233 3.2 12.9 0.00 0.00 0.00 35 1015.0
20260504193650 14 302 4.8 14.5 0.00 0.00 0.00 33 1014.9
20260504192648 14 292 3.2 12.9 0.00 0.00 0.00 31 1014.9
20260504191649 15 255 6.4 22.5 0.00 0.00 0.00 29 1015.0
20260504190649 15 261 4.8 17.7 0.00 0.00 0.00 29 1015.0
20260504185639 15 294 4.8 16.1 0.00 0.00 0.00 28 1015.0
20260504184638 15 306 4.8 12.9 0.00 0.00 0.00 28 1015.0
20260504183637 15 284 4.8 17.7 0.00 0.00 0.00 31 1015.0
20260504182644 14 244 8.0 22.5 0.00 0.00 0.00 29 1015.7
20260504182638 15 246 6.4 20.9 0.00 0.00 0.00 29 1015.5
20260504181638 14 219 8.0 19.3 0.00 0.00 0.00 29 1015.7
20260504175639 14 313 6.4 20.9 0.00 0.00 0.00 30 1015.7
20260504174639 13 244 6.4 22.5 0.00 0.00 0.00 29 1015.8
20260504174634 13 257 4.8 16.1 0.00 0.00 0.00 29 1016.1
20260504173628 13 315 6.4 22.5 0.00 0.00 0.00 29 1016.1